����������;��������(kVARh)
2016-04-18 00:00;0,9
2016-04-18 00:15;0,1
2016-04-18 00:30;0,05
2016-04-18 00:45;0
2016-04-18 01:00;0,1
2016-04-18 01:15;0
2016-04-18 01:30;0,1
2016-04-18 01:45;0
2016-04-18 02:00;0
2016-04-18 02:15;0
2016-04-18 02:30;0,1
2016-04-18 02:45;0,05
2016-04-18 03:00;0
2016-04-18 03:15;0,15
2016-04-18 03:30;0
2016-04-18 03:45;0,2
2016-04-18 04:00;0,3
2016-04-18 04:15;0,05
2016-04-18 04:30;0,45
2016-04-18 04:45;0,15
2016-04-18 05:00;0,15
2016-04-18 05:15;0,2
2016-04-18 05:30;0,1
2016-04-18 05:45;0,65
2016-04-18 06:00;0,95
2016-04-18 06:15;0,7
2016-04-18 06:30;0,95
2016-04-18 06:45;0,05
2016-04-18 07:00;0,1
2016-04-18 07:15;0,05
2016-04-18 07:30;1,5
2016-04-18 07:45;2,5
2016-04-18 08:00;1,85
2016-04-18 08:15;0,2
2016-04-18 08:30;0,7
2016-04-18 08:45;3,7
2016-04-18 09:00;7,75
2016-04-18 09:15;7,05
2016-04-18 09:30;8,3
2016-04-18 09:45;10,75
2016-04-18 10:00;11,95
2016-04-18 10:15;13,1
2016-04-18 10:30;13,5
2016-04-18 10:45;15,75
2016-04-18 11:00;15,85
2016-04-18 11:15;25,8
2016-04-18 11:30;26,95
2016-04-18 11:45;24,75
2016-04-18 12:00;23,4
2016-04-18 12:15;26,3
2016-04-18 12:30;26,9
2016-04-18 12:45;25,85
2016-04-18 13:00;29,4
2016-04-18 13:15;28,85
2016-04-18 13:30;31,8
2016-04-18 13:45;29,1
2016-04-18 14:00;28,95
2016-04-18 14:15;30,1
2016-04-18 14:30;30,95
2016-04-18 14:45;29,7
2016-04-18 15:00;32,3
2016-04-18 15:15;34,3
2016-04-18 15:30;32,9
2016-04-18 15:45;32,85
2016-04-18 16:00;31,45
2016-04-18 16:15;26,85
2016-04-18 16:30;26,7
2016-04-18 16:45;25,65
2016-04-18 17:00;24,5
2016-04-18 17:15;22,25
2016-04-18 17:30;21,15
2016-04-18 17:45;21,5
2016-04-18 18:00;21,25
2016-04-18 18:15;18
2016-04-18 18:30;17,95
2016-04-18 18:45;18
2016-04-18 19:00;17,4
2016-04-18 19:15;17,1
2016-04-18 19:30;17,5
2016-04-18 19:45;14,7
2016-04-18 20:00;13,3
2016-04-18 20:15;13,5
2016-04-18 20:30;8,65
2016-04-18 20:45;4,95
2016-04-18 21:00;3,85
2016-04-18 21:15;6,65
2016-04-18 21:30;8,35
2016-04-18 21:45;8,45
2016-04-18 22:00;7,85
2016-04-18 22:15;6,15
2016-04-18 22:30;1,2
2016-04-18 22:45;0,15
2016-04-18 23:00;0,4
2016-04-18 23:15;0,05
2016-04-18 23:30;1,9
2016-04-18 23:45;4,8
2016-04-19 00:00;6,6
2016-04-19 00:15;3
2016-04-19 00:30;0
2016-04-19 00:45;0
2016-04-19 01:00;0
2016-04-19 01:15;0,1
2016-04-19 01:30;0
2016-04-19 01:45;0,1
2016-04-19 02:00;0,1
2016-04-19 02:15;0,2
2016-04-19 02:30;0,05
2016-04-19 02:45;0
2016-04-19 03:00;0,05
2016-04-19 03:15;0
2016-04-19 03:30;0,05
2016-04-19 03:45;0,05
2016-04-19 04:00;0,15
2016-04-19 04:15;0,05
2016-04-19 04:30;0,1
2016-04-19 04:45;0,05
2016-04-19 05:00;0,05
2016-04-19 05:15;0
2016-04-19 05:30;0,1
2016-04-19 05:45;0,15
2016-04-19 06:00;1,6
2016-04-19 06:15;2,2
2016-04-19 06:30;1,4
2016-04-19 06:45;1,95
2016-04-19 07:00;5
2016-04-19 07:15;2,75
2016-04-19 07:30;8,25
2016-04-19 07:45;16,5
2016-04-19 08:00;18,95
2016-04-19 08:15;14,75
2016-04-19 08:30;12,5
2016-04-19 08:45;10,2
2016-04-19 09:00;11,05
2016-04-19 09:15;13,3
2016-04-19 09:30;20,25
2016-04-19 09:45;23,5
2016-04-19 10:00;22,7
2016-04-19 10:15;25,15
2016-04-19 10:30;27,65
2016-04-19 10:45;27,45
2016-04-19 11:00;26,55
2016-04-19 11:15;28,85
2016-04-19 11:30;29,9
2016-04-19 11:45;30
2016-04-19 12:00;31,35
2016-04-19 12:15;32
2016-04-19 12:30;33,2
2016-04-19 12:45;29
2016-04-19 13:00;27,05
2016-04-19 13:15;26,65
2016-04-19 13:30;27,5
2016-04-19 13:45;28,4
2016-04-19 14:00;28,7
2016-04-19 14:15;29,3
2016-04-19 14:30;29,05
2016-04-19 14:45;29,6
2016-04-19 15:00;29,2
2016-04-19 15:15;26,95
2016-04-19 15:30;25,45
2016-04-19 15:45;27,15
2016-04-19 16:00;24,25
2016-04-19 16:15;21,05
2016-04-19 16:30;23,6
2016-04-19 16:45;22,45
2016-04-19 17:00;20,5
2016-04-19 17:15;19,1
2016-04-19 17:30;15,55
2016-04-19 17:45;15,65
2016-04-19 18:00;13,8
2016-04-19 18:15;13,1
2016-04-19 18:30;9,4
2016-04-19 18:45;10,65
2016-04-19 19:00;8,2
2016-04-19 19:15;10,05
2016-04-19 19:30;13,95
2016-04-19 19:45;18,2
2016-04-19 20:00;14,7
2016-04-19 20:15;10,7
2016-04-19 20:30;9,55
2016-04-19 20:45;8,25
2016-04-19 21:00;4,4
2016-04-19 21:15;7,3
2016-04-19 21:30;10,25
2016-04-19 21:45;10,8
2016-04-19 22:00;11,35
2016-04-19 22:15;10,5
2016-04-19 22:30;5,8
2016-04-19 22:45;6,2
2016-04-19 23:00;6,2
2016-04-19 23:15;5,6
2016-04-19 23:30;7,3
2016-04-19 23:45;7,1
2016-04-20 00:00;5,9
2016-04-20 00:15;8,65
2016-04-20 00:30;7,65
2016-04-20 00:45;13
2016-04-20 01:00;13,05
2016-04-20 01:15;0,65
2016-04-20 01:30;0,35
2016-04-20 01:45;0,7
2016-04-20 02:00;0,05
2016-04-20 02:15;0
2016-04-20 02:30;0,05
2016-04-20 02:45;0
2016-04-20 03:00;0,15
2016-04-20 03:15;0,05
2016-04-20 03:30;0,2
2016-04-20 03:45;0,1
2016-04-20 04:00;0
2016-04-20 04:15;0,15
2016-04-20 04:30;0,25
2016-04-20 04:45;0,2
2016-04-20 05:00;0,1
2016-04-20 05:15;0,15
2016-04-20 05:30;0
2016-04-20 05:45;0,2
2016-04-20 06:00;0,25
2016-04-20 06:15;0,2
2016-04-20 06:30;0,15
2016-04-20 06:45;0,3
2016-04-20 07:00;0,05
2016-04-20 07:15;4
2016-04-20 07:30;10,85
2016-04-20 07:45;14,7
2016-04-20 08:00;14,85
2016-04-20 08:15;18,65
2016-04-20 08:30;16,05
2016-04-20 08:45;17,05
2016-04-20 09:00;17,9
2016-04-20 09:15;19,7
2016-04-20 09:30;21,9
2016-04-20 09:45;18,85
2016-04-20 10:00;18,4
2016-04-20 10:15;20,55
2016-04-20 10:30;20,85
2016-04-20 10:45;23,75
2016-04-20 11:00;31,6
2016-04-20 11:15;41,2
2016-04-20 11:30;38,25
2016-04-20 11:45;47,55
2016-04-20 12:00;46,25
2016-04-20 12:15;44,95
2016-04-20 12:30;45,15
2016-04-20 12:45;47,25
2016-04-20 13:00;47,15
2016-04-20 13:15;45,35
2016-04-20 13:30;46,05
2016-04-20 13:45;44,95
2016-04-20 14:00;44,75
2016-04-20 14:15;45,2
2016-04-20 14:30;45,5
2016-04-20 14:45;49,2
2016-04-20 15:00;50,35
2016-04-20 15:15;54,4
2016-04-20 15:30;46,55
2016-04-20 15:45;43,55
2016-04-20 16:00;40,75
2016-04-20 16:15;38,05
2016-04-20 16:30;37,8
2016-04-20 16:45;36,3
2016-04-20 17:00;35,3
2016-04-20 17:15;31,25
2016-04-20 17:30;33,35
2016-04-20 17:45;34
2016-04-20 18:00;31,75
2016-04-20 18:15;31,35
2016-04-20 18:30;28,9
2016-04-20 18:45;28,55
2016-04-20 19:00;27,15
2016-04-20 19:15;26,6
2016-04-20 19:30;22,7
2016-04-20 19:45;20,45
2016-04-20 20:00;21,1
2016-04-20 20:15;16,2
2016-04-20 20:30;16,2
2016-04-20 20:45;16
2016-04-20 21:00;14,5
2016-04-20 21:15;17,75
2016-04-20 21:30;18,9
2016-04-20 21:45;16,35
2016-04-20 22:00;14,7
2016-04-20 22:15;15,45
2016-04-20 22:30;8,05
2016-04-20 22:45;8,65
2016-04-20 23:00;9,8
2016-04-20 23:15;8,3
2016-04-20 23:30;11,2
2016-04-20 23:45;12,7
2016-04-21 00:00;15,15
2016-04-21 00:15;17,65
2016-04-21 00:30;13,3
2016-04-21 00:45;0,7
2016-04-21 01:00;0
2016-04-21 01:15;0,05
2016-04-21 01:30;0,05
2016-04-21 01:45;0,05
2016-04-21 02:00;0,1
2016-04-21 02:15;2,7
2016-04-21 02:30;3
2016-04-21 02:45;2,4
2016-04-21 03:00;3
2016-04-21 03:15;0,55
2016-04-21 03:30;0,05
2016-04-21 03:45;0,5
2016-04-21 04:00;1,55
2016-04-21 04:15;0,35
2016-04-21 04:30;1,15
2016-04-21 04:45;0,35
2016-04-21 05:00;0,45
2016-04-21 05:15;1
2016-04-21 05:30;0,25
2016-04-21 05:45;0,25
2016-04-21 06:00;1,6
2016-04-21 06:15;1,85
2016-04-21 06:30;2,1
2016-04-21 06:45;2,25
2016-04-21 07:00;1,15
2016-04-21 07:15;1,45
2016-04-21 07:30;0,3
2016-04-21 07:45;2,3
2016-04-21 08:00;4,35
2016-04-21 08:15;9,4
2016-04-21 08:30;10,4
2016-04-21 08:45;19,1
2016-04-21 09:00;19,75
2016-04-21 09:15;18,5
2016-04-21 09:30;24,05
2016-04-21 09:45;25,35
2016-04-21 10:00;25
2016-04-21 10:15;26,8
2016-04-21 10:30;28,35
2016-04-21 10:45;28,15
2016-04-21 11:00;30,25
2016-04-21 11:15;27,25
2016-04-21 11:30;31,8
2016-04-21 11:45;31,8
2016-04-21 12:00;33,2
2016-04-21 12:15;29,8
2016-04-21 12:30;26,4
2016-04-21 12:45;27,85
2016-04-21 13:00;25,15
2016-04-21 13:15;27
2016-04-21 13:30;32,65
2016-04-21 13:45;31,75
2016-04-21 14:00;30,95
2016-04-21 14:15;33,45
2016-04-21 14:30;32,95
2016-04-21 14:45;32,65
2016-04-21 15:00;34,9
2016-04-21 15:15;32,2
2016-04-21 15:30;27,05
2016-04-21 15:45;25,2
2016-04-21 16:00;25,65
2016-04-21 16:15;25,4
2016-04-21 16:30;25,7
2016-04-21 16:45;24
2016-04-21 17:00;25,4
2016-04-21 17:15;21,05
2016-04-21 17:30;18,65
2016-04-21 17:45;18,1
2016-04-21 18:00;13,1
2016-04-21 18:15;11,8
2016-04-21 18:30;11,15
2016-04-21 18:45;9,3
2016-04-21 19:00;6,1
2016-04-21 19:15;6,9
2016-04-21 19:30;5,1
2016-04-21 19:45;6,5
2016-04-21 20:00;4,95
2016-04-21 20:15;1,75
2016-04-21 20:30;2,35
2016-04-21 20:45;0,8
2016-04-21 21:00;2,35
2016-04-21 21:15;5,15
2016-04-21 21:30;4,15
2016-04-21 21:45;4,05
2016-04-21 22:00;3,9
2016-04-21 22:15;5,8
2016-04-21 22:30;0
2016-04-21 22:45;0,1
2016-04-21 23:00;0,05
2016-04-21 23:15;0
2016-04-21 23:30;0
2016-04-21 23:45;0
2016-04-22 00:00;0
2016-04-22 00:15;0
2016-04-22 00:30;0,05
2016-04-22 00:45;0
2016-04-22 01:00;0
2016-04-22 01:15;0
2016-04-22 01:30;0
2016-04-22 01:45;0
2016-04-22 02:00;0
2016-04-22 02:15;0
2016-04-22 02:30;0
2016-04-22 02:45;0
2016-04-22 03:00;0
2016-04-22 03:15;0
2016-04-22 03:30;0
2016-04-22 03:45;0
2016-04-22 04:00;0
2016-04-22 04:15;0
2016-04-22 04:30;0
2016-04-22 04:45;0
2016-04-22 05:00;0,1
2016-04-22 05:15;0
2016-04-22 05:30;0
2016-04-22 05:45;0
2016-04-22 06:00;0
2016-04-22 06:15;0
2016-04-22 06:30;0
2016-04-22 06:45;0
2016-04-22 07:00;0
2016-04-22 07:15;0
2016-04-22 07:30;0,95
2016-04-22 07:45;6,55
2016-04-22 08:00;5,5
2016-04-22 08:15;1,05
2016-04-22 08:30;6,75
2016-04-22 08:45;8,8
2016-04-22 09:00;12,6
2016-04-22 09:15;16,05
2016-04-22 09:30;19,2
2016-04-22 09:45;20,5
2016-04-22 10:00;18,05
2016-04-22 10:15;19,1
2016-04-22 10:30;18,35
2016-04-22 10:45;18,85
2016-04-22 11:00;29,25
2016-04-22 11:15;22,75
2016-04-22 11:30;27,85
2016-04-22 11:45;23,65
2016-04-22 12:00;21,15
2016-04-22 12:15;25,65
2016-04-22 12:30;21,7
2016-04-22 12:45;23
2016-04-22 13:00;22,25
2016-04-22 13:15;24,85
2016-04-22 13:30;28
2016-04-22 13:45;29,7
2016-04-22 14:00;29,3
2016-04-22 14:15;31,5
2016-04-22 14:30;32,35
2016-04-22 14:45;34,25
2016-04-22 15:00;33,5
2016-04-22 15:15;37,25
2016-04-22 15:30;28,3
2016-04-22 15:45;24,1
2016-04-22 16:00;19,3
2016-04-22 16:15;13,5
2016-04-22 16:30;12,65
2016-04-22 16:45;12
2016-04-22 17:00;10,7
2016-04-22 17:15;9,95
2016-04-22 17:30;8,25
2016-04-22 17:45;13
2016-04-22 18:00;17
2016-04-22 18:15;14,8
2016-04-22 18:30;14
2016-04-22 18:45;13,5
2016-04-22 19:00;10,9
2016-04-22 19:15;10,6
2016-04-22 19:30;4,9
2016-04-22 19:45;0
2016-04-22 20:00;0,1
2016-04-22 20:15;0
2016-04-22 20:30;0
2016-04-22 20:45;0
2016-04-22 21:00;0,2
2016-04-22 21:15;0
2016-04-22 21:30;0,05
2016-04-22 21:45;0,2
2016-04-22 22:00;0,1
2016-04-22 22:15;2,95
2016-04-22 22:30;2,6
2016-04-22 22:45;0,05
2016-04-22 23:00;0
2016-04-22 23:15;0
2016-04-22 23:30;0
2016-04-22 23:45;0
2016-04-23 00:00;0
2016-04-23 00:15;0
2016-04-23 00:30;0
2016-04-23 00:45;0
2016-04-23 01:00;0
2016-04-23 01:15;0
2016-04-23 01:30;0
2016-04-23 01:45;0
2016-04-23 02:00;0,05
2016-04-23 02:15;0
2016-04-23 02:30;0
2016-04-23 02:45;0
2016-04-23 03:00;0
2016-04-23 03:15;0
2016-04-23 03:30;0
2016-04-23 03:45;0
2016-04-23 04:00;0
2016-04-23 04:15;0,1
2016-04-23 04:30;0,2
2016-04-23 04:45;0
2016-04-23 05:00;0
2016-04-23 05:15;0
2016-04-23 05:30;0,05
2016-04-23 05:45;0
2016-04-23 06:00;0
2016-04-23 06:15;0,05
2016-04-23 06:30;0
2016-04-23 06:45;0,6
2016-04-23 07:00;0,25
2016-04-23 07:15;0,05
2016-04-23 07:30;0,05
2016-04-23 07:45;0
2016-04-23 08:00;0
2016-04-23 08:15;0,05
2016-04-23 08:30;0
2016-04-23 08:45;0
2016-04-23 09:00;0,05
2016-04-23 09:15;0
2016-04-23 09:30;0
2016-04-23 09:45;0
2016-04-23 10:00;0,4
2016-04-23 10:15;8,65
2016-04-23 10:30;6,65
2016-04-23 10:45;4,9
2016-04-23 11:00;2,85
2016-04-23 11:15;0,2
2016-04-23 11:30;0
2016-04-23 11:45;0
2016-04-23 12:00;0
2016-04-23 12:15;0
2016-04-23 12:30;0,05
2016-04-23 12:45;2,3
2016-04-23 13:00;2,2
2016-04-23 13:15;1,1
2016-04-23 13:30;2,95
2016-04-23 13:45;5,4
2016-04-23 14:00;5,9
2016-04-23 14:15;5,4
2016-04-23 14:30;6,5
2016-04-23 14:45;8,2
2016-04-23 15:00;11,25
2016-04-23 15:15;12,6
2016-04-23 15:30;4,65
2016-04-23 15:45;6
2016-04-23 16:00;17,4
2016-04-23 16:15;12,55
2016-04-23 16:30;7,8
2016-04-23 16:45;7,95
2016-04-23 17:00;7,35
2016-04-23 17:15;5,95
2016-04-23 17:30;5,45
2016-04-23 17:45;9,8
2016-04-23 18:00;7,8
2016-04-23 18:15;8,25
2016-04-23 18:30;0,85
2016-04-23 18:45;2,35
2016-04-23 19:00;4,25
2016-04-23 19:15;2,85
2016-04-23 19:30;1
2016-04-23 19:45;0
2016-04-23 20:00;0
2016-04-23 20:15;0
2016-04-23 20:30;0
2016-04-23 20:45;0
2016-04-23 21:00;0
2016-04-23 21:15;0
2016-04-23 21:30;0
2016-04-23 21:45;0,1
2016-04-23 22:00;0
2016-04-23 22:15;0,05
2016-04-23 22:30;0,05
2016-04-23 22:45;0
2016-04-23 23:00;0
2016-04-23 23:15;0
2016-04-23 23:30;0
2016-04-23 23:45;0
2016-04-24 00:00;0
2016-04-24 00:15;0
2016-04-24 00:30;0
2016-04-24 00:45;0,05
2016-04-24 01:00;0
2016-04-24 01:15;0
2016-04-24 01:30;0
2016-04-24 01:45;0
2016-04-24 02:00;0
2016-04-24 02:15;0
2016-04-24 02:30;0
2016-04-24 02:45;0
2016-04-24 03:00;0
2016-04-24 03:15;0
2016-04-24 03:30;0
2016-04-24 03:45;0
2016-04-24 04:00;0
2016-04-24 04:15;0
2016-04-24 04:30;0
2016-04-24 04:45;0
2016-04-24 05:00;0
2016-04-24 05:15;0
2016-04-24 05:30;0,05
2016-04-24 05:45;0
2016-04-24 06:00;0
2016-04-24 06:15;0,05
2016-04-24 06:30;0
2016-04-24 06:45;0,05
2016-04-24 07:00;0
2016-04-24 07:15;0
2016-04-24 07:30;0
2016-04-24 07:45;0,2
2016-04-24 08:00;0,1
2016-04-24 08:15;1,55
2016-04-24 08:30;1,85
2016-04-24 08:45;0,95
2016-04-24 09:00;0,85
2016-04-24 09:15;0,6
2016-04-24 09:30;0
2016-04-24 09:45;0
2016-04-24 10:00;0,15
2016-04-24 10:15;0
2016-04-24 10:30;0,05
2016-04-24 10:45;0
2016-04-24 11:00;0
2016-04-24 11:15;0
2016-04-24 11:30;0
2016-04-24 11:45;0,4
2016-04-24 12:00;3
2016-04-24 12:15;4,1
2016-04-24 12:30;5,4
2016-04-24 12:45;7
2016-04-24 13:00;0,9
2016-04-24 13:15;0,7
2016-04-24 13:30;0,9
2016-04-24 13:45;1,5
2016-04-24 14:00;4,3
2016-04-24 14:15;13,1
2016-04-24 14:30;15,5
2016-04-24 14:45;5,75
2016-04-24 15:00;8,05
2016-04-24 15:15;14,8
2016-04-24 15:30;15,7
2016-04-24 15:45;16,15
2016-04-24 16:00;11,65
2016-04-24 16:15;3,55
2016-04-24 16:30;6,65
2016-04-24 16:45;7,75
2016-04-24 17:00;7,9
2016-04-24 17:15;3,85
2016-04-24 17:30;9
2016-04-24 17:45;7,2
2016-04-24 18:00;8,1
2016-04-24 18:15;3,6
2016-04-24 18:30;6,5
2016-04-24 18:45;6
2016-04-24 19:00;2,35
2016-04-24 19:15;1,05
2016-04-24 19:30;0,25
2016-04-24 19:45;0
2016-04-24 20:00;0,1
2016-04-24 20:15;0,3
2016-04-24 20:30;0
2016-04-24 20:45;0
2016-04-24 21:00;0
2016-04-24 21:15;0
2016-04-24 21:30;0,35
2016-04-24 21:45;0
2016-04-24 22:00;0,05
2016-04-24 22:15;0
2016-04-24 22:30;0,15
2016-04-24 22:45;0,4
2016-04-24 23:00;1
2016-04-24 23:15;1,35
2016-04-24 23:30;0,45
2016-04-24 23:45;0,15

